Greenville, ME

5:48 PM EST on November 11, 2019 (GMT -0500)
Greenville

Weather History for KGNR - October, 2019

Change the Weather History Date:

Wednesday, October 23, 2019

  Actual Average (KMLT) Record (KMLT)
Temperature  
Mean Temperature 44 °F -  
Max Temperature 46 °F 52 °F 80 °F (1979)
Min Temperature 43 °F 33 °F 19 °F (1905)
Degree Days  
Heating Degree Days 20    
Moisture  
Dew Point 42 °F    
Average Humidity 88    
Maximum Humidity 97    
Minimum Humidity 68    
Precipitation  
Precipitation 1.49 in - - ()
Sea Level Pressure  
Sea Level Pressure 29.85 in    
Wind  
Wind Speed 10 mph ()    
Max Wind Speed 16 mph    
Max Gust Speed 25 mph    
Averages and records for this station are not official NWS values.
T = Trace of Precipitation, MM = Missing Value Source: Averaged Metar Reports

Daily Weather History Graph

Daily Weather History Graph

Search for Another Location

Airport or City:

Astronomy

Oct. 23, 2019 Rise Set
Actual Time 7:04 AM EDT 5:39 PM EDT
Civil Twilight 6:34 AM EDT 6:09 PM EDT
Nautical Twilight 6:00 AM EDT 6:44 PM EDT
Astronomical Twilight 5:25 AM EDT 7:18 PM EDT
Moon 12:57 AM EDT (10/23) 3:47 PM EDT (10/23)
Length of Visible Light 11h 35m
Length of Day
10h 34m
Waning Crescent, 27% of the Moon is Illuminated
Oct 23
Waning Crescent
Oct 27
New
Nov 4
First Quarter
Nov 12
Full
Nov 19
Last Quarter

Hourly Weather History & Observations

Time (EDT) Temp. Windchill Dew Point Humidity Pressure Visibility Wind Dir Wind Speed Gust Speed Precip Events Conditions
12:56 AM 46.9 °F - 37.0 °F 68% 30.03 in - ESE 11.5 mph 25.3 mph N/A   Unknown
1:56 AM 46.0 °F 39.9 °F 37.9 °F 73% 29.99 in - ESE 13.8 mph 23.0 mph N/A   Unknown
2:56 AM 44.1 °F 37.4 °F 39.9 °F 85% 29.96 in - ESE 13.8 mph 24.2 mph 0.01 in   Unknown
3:56 AM 43.0 °F 36.0 °F 41.0 °F 93% 29.92 in - ESE 13.8 mph 23.0 mph 0.12 in   Unknown
4:56 AM 43.0 °F 37.7 °F 42.1 °F 97% 29.91 in - SE 9.2 mph - 0.13 in   Unknown
5:56 AM 43.0 °F 37.2 °F 42.1 °F 97% 29.89 in - SE 10.4 mph - 0.26 in   Unknown
6:56 AM 44.1 °F 38.6 °F 43.0 °F 96% 29.86 in - ESE 10.4 mph 20.7 mph 0.09 in   Unknown
8:56 AM 46.4 °F 42.4 °F 44.6 °F 93% 29.82 in - East 8.1 mph - 0.09 in   Unknown
10:56 AM 46.9 °F - 46.0 °F 97% 29.78 in - NW 5.8 mph - 0.24 in   Unknown
11:56 AM 46.0 °F 43.9 °F 45.0 °F 96% 29.75 in - NW 4.6 mph - 0.33 in   Unknown
12:56 PM 45.0 °F 38.5 °F 44.1 °F 97% 29.73 in - NW 13.8 mph 18.4 mph 0.19 in   Unknown
1:56 PM 46.0 °F 40.6 °F 44.1 °F 93% 29.73 in - NW 11.5 mph 18.4 mph 0.02 in   Unknown
2:56 PM 46.0 °F 39.6 °F 44.1 °F 93% 29.73 in - NW 15.0 mph 21.9 mph 0.01 in   Unknown
3:56 PM 46.0 °F 39.3 °F 44.1 °F 93% 29.75 in - NW 16.1 mph 21.9 mph N/A   Unknown
4:56 PM 46.9 °F - 45.0 °F 93% 29.77 in - NW 11.5 mph 20.7 mph N/A   Unknown
5:56 PM 46.9 °F - 45.0 °F 93% 29.80 in - NW 6.9 mph - N/A   Unknown
6:56 PM 46.0 °F 42.5 °F 45.0 °F 96% 29.83 in - NW 6.9 mph - N/A   Unknown
7:56 PM 45.0 °F 40.6 °F 41.0 °F 86% 29.86 in - NW 8.1 mph - N/A   Unknown
8:56 PM 44.1 °F 39.5 °F 39.9 °F 85% 29.89 in - NNW 8.1 mph - N/A   Unknown
9:56 PM 45.0 °F 40.6 °F 39.0 °F 80% 29.91 in - NW 8.1 mph 17.3 mph N/A   Unknown
10:56 PM 46.9 °F - 37.0 °F 68% 29.92 in - WNW 10.4 mph 25.3 mph N/A   Unknown
11:56 PM 46.0 °F - 36.0 °F 68% 29.94 in - North - - N/A   Unknown